TimePST,TemperatureF,Dew PointF,Humidity,Sea Level PressureIn,VisibilityMPH,Wind Direction,Wind SpeedMPH,Gust SpeedMPH,PrecipitationIn,Events,Conditions,WindDirDegrees,DateUTC
12:53 AM,43.0,39.9,89,30.15,10.0,Calm,Calm,-,N/A,,Overcast,0,2012-12-06 08:53:00
1:15 AM,42.8,39.2,87,30.14,10.0,SSE,3.5,-,N/A,,Overcast,160,2012-12-06 09:15:00
1:34 AM,42.8,39.2,87,30.14,10.0,SE,5.8,-,N/A,,Overcast,130,2012-12-06 09:34:00
1:53 AM,43.0,39.9,89,30.14,10.0,SE,6.9,-,N/A,,Overcast,140,2012-12-06 09:53:00
2:01 AM,42.8,39.2,87,30.14,10.0,SE,6.9,-,N/A,,Overcast,140,2012-12-06 10:01:00
2:53 AM,43.0,39.9,89,30.14,10.0,SSE,4.6,-,0.00,,Overcast,150,2012-12-06 10:53:00
3:53 AM,43.0,39.0,86,30.11,10.0,SE,5.8,-,N/A,,Overcast,130,2012-12-06 11:53:00
4:53 AM,43.0,39.9,89,30.10,10.0,SSE,3.5,-,N/A,,Overcast,150,2012-12-06 12:53:00
5:53 AM,43.0,39.0,86,30.08,10.0,SSE,6.9,-,0.00,,Overcast,160,2012-12-06 13:53:00
6:31 AM,42.8,39.2,87,30.08,10.0,SE,8.1,-,0.00,Rain,Light Rain,140,2012-12-06 14:31:00
6:44 AM,42.8,39.2,87,30.07,10.0,SSE,8.1,-,0.00,Rain,Light Rain,150,2012-12-06 14:44:00
6:53 AM,43.0,39.9,89,30.07,10.0,SSE,9.2,-,0.00,Rain,Light Rain,150,2012-12-06 14:53:00
7:53 AM,43.0,39.9,89,30.07,10.0,SSE,9.2,-,0.00,Rain,Light Rain,150,2012-12-06 15:53:00
8:29 AM,42.8,39.2,87,30.06,6.0,South,6.9,-,0.00,Rain,Light Rain,170,2012-12-06 16:29:00
8:53 AM,42.1,39.9,92,30.07,5.0,South,3.5,-,0.00,Rain,Light Rain,180,2012-12-06 16:53:00
9:43 AM,42.8,41.0,93,30.07,9.0,Calm,Calm,-,0.00,Rain,Light Rain,0,2012-12-06 17:43:00
9:53 AM,42.1,41.0,96,30.07,8.0,Calm,Calm,-,0.00,Rain,Light Rain,0,2012-12-06 17:53:00
10:44 AM,41.0,39.2,93,30.08,10.0,Variable,4.6,-,0.01,Rain,Light Rain,0,2012-12-06 18:44:00
10:53 AM,42.1,39.0,89,30.08,10.0,SW,3.5,-,0.01,Rain,Light Rain,230,2012-12-06 18:53:00
11:53 AM,42.1,39.0,89,30.06,7.0,South,5.8,-,0.00,Rain,Light Rain,180,2012-12-06 19:53:00
12:29 PM,42.8,39.2,87,30.05,7.0,SSW,4.6,-,0.01,Rain,Light Rain,200,2012-12-06 20:29:00
12:38 PM,42.8,41.0,93,30.05,10.0,SW,4.6,-,0.01,Rain,Light Rain,220,2012-12-06 20:38:00
12:53 PM,44.1,41.0,89,30.05,10.0,SW,6.9,-,0.01,Rain,Light Rain,220,2012-12-06 20:53:00
1:07 PM,44.6,41.0,87,30.04,10.0,SW,4.6,-,0.00,,Overcast,220,2012-12-06 21:07:00
1:53 PM,43.0,39.9,89,30.04,10.0,Variable,3.5,-,0.00,Rain,Light Rain,0,2012-12-06 21:53:00
2:53 PM,43.0,39.9,89,30.04,10.0,Calm,Calm,-,0.00,,Overcast,0,2012-12-06 22:53:00
3:53 PM,42.1,39.9,92,30.04,10.0,SW,3.5,-,0.00,Rain,Light Rain,230,2012-12-06 23:53:00
4:53 PM,42.1,39.9,92,30.06,10.0,Calm,Calm,-,0.00,Rain,Light Rain,0,2012-12-07 00:53:00
5:53 PM,41.0,39.0,93,30.06,10.0,West,3.5,-,0.00,,Overcast,260,2012-12-07 01:53:00
6:53 PM,41.0,37.9,89,30.06,10.0,Calm,Calm,-,N/A,,Scattered Clouds,0,2012-12-07 02:53:00
7:53 PM,39.0,36.0,89,30.07,10.0,WSW,4.6,-,N/A,,Clear,250,2012-12-07 03:53:00
8:53 PM,39.0,36.0,89,30.08,10.0,WSW,3.5,-,N/A,,Clear,240,2012-12-07 04:53:00
9:53 PM,37.0,36.0,96,30.08,10.0,Calm,Calm,-,N/A,,Mostly Cloudy,0,2012-12-07 05:53:00
10:53 PM,37.9,37.0,97,30.06,-9999.0,South,3.5,-,N/A,,Unknown,190,2012-12-07 06:53:00
11:32 PM,42.8,39.2,87,30.05,10.0,SSE,9.2,-,N/A,,Overcast,160,2012-12-07 07:32:00
11:49 PM,42.8,39.2,87,30.04,10.0,SSE,11.5,18.4,N/A,,Overcast,160,2012-12-07 07:49:00
11:53 PM,43.0,39.9,89,30.04,10.0,SSE,12.7,21.9,N/A,,Overcast,160,2012-12-07 07:53:00